This is the latest recevied weather packets stored in our database for station/object VE8SKI. If no packets are shown the sender has not sent any weather packets the latest 10 day(s).
| Time | Temp. | Humidity | Pressure | Rain* | Wind** | Luminosity | Snow |
|---|---|---|---|---|---|---|---|
| 1777341572 | 0° C | 68% | 1018.6 hPa | 0 mm | 0 m/s | - | - |
| 1777341273 | 0° C | 68% | 1018.7 hPa | 0 mm | 0 m/s | - | - |
| 1777340971 | -0.56° C | 68% | 1018.7 hPa | 0 mm | 1.34 m/s, 149° | - | - |
| 1777340671 | -0.56° C | 68% | 1018.8 hPa | 0 mm | 1.34 m/s, 245° | - | - |
| 1777340372 | -0.56° C | 68% | 1018.8 hPa | 0 mm | 1.79 m/s, 260° | - | - |
| 1777340072 | -0.56° C | 68% | 1018.8 hPa | 0 mm | 0 m/s | - | - |
| 1777339773 | -0.56° C | 68% | 1018.8 hPa | 0 mm | 1.34 m/s, 359° | - | - |
| 1777339473 | -0.56° C | 68% | 1018.9 hPa | 0 mm | 1.34 m/s, 250° | - | - |
| 1777339171 | -0.56° C | 68% | 1018.9 hPa | 0 mm | 1.34 m/s, 273° | - | - |
| 1777338871 | -0.56° C | 68% | 1018.8 hPa | 0 mm | 1.79 m/s, 224° | - | - |
| 1777338572 | -0.56° C | 67% | 1018.8 hPa | 0 mm | 2.24 m/s, 250° | - | - |
| 1777338272 | 0° C | 66% | 1018.8 hPa | 0 mm | 0.89 m/s, 231° | - | - |
| 1777337973 | 0.56° C | 67% | 1018.7 hPa | 0 mm | 0 m/s | - | - |
| 1777337673 | 0° C | 67% | 1018.7 hPa | 0 mm | 0.45 m/s, 267° | - | - |
| 1777337371 | 0° C | 68% | 1018.7 hPa | 0 mm | 0.45 m/s, 269° | - | - |
| 1777337072 | 0° C | 67% | 1018.7 hPa | 0 mm | 1.79 m/s, 238° | - | - |
| 1777336772 | 0° C | 67% | 1018.7 hPa | 0 mm | 0.89 m/s, 277° | - | - |
| 1777336472 | 0° C | 67% | 1018.7 hPa | 0 mm | 0.89 m/s, 260° | - | - |
| 1777336173 | -0.56° C | 67% | 1018.7 hPa | 0 mm | 1.34 m/s, 339° | - | - |
| 1777335873 | -0.56° C | 68% | 1018.6 hPa | 0 mm | 1.79 m/s, 359° | - | - |
| 1777335571 | 0° C | 68% | 1018.6 hPa | 0 mm | 1.79 m/s, 318° | - | - |
| 1777335272 | -0.56° C | 68% | 1018.7 hPa | 0 mm | 1.79 m/s, 285° | - | - |
| 1777334972 | -0.56° C | 69% | 1018.7 hPa | 0 mm | 0.89 m/s, 252° | - | - |
| 1777334673 | -1.11° C | 68% | 1018.7 hPa | 0 mm | 2.24 m/s, 229° | - | - |
| 1777334373 | -0.56° C | 69% | 1018.8 hPa | 0 mm | 1.34 m/s, 307° | - | - |
* Rain latest hour (hover to see other rain measurements)
** Current wind speed in m/s (hover to see current wind gust speed)